SCP
0 0 0 0 -0 -0 -0 -0 -0 -0 -0 -0 0 -0 -0 -0 -0 -0 0 0 0 -0 0 0 0 0 0 0 -0 -0 0 0 -0 -0 -0 -0 -0 -0 0 0 0 0 0 0 0
0 0 0 0 0 -0 -0 -0 -0 -0 -0 -0 -0 -0 -0 -0 0 0 0 0 0 0 0 0 0 0 0 0 -0 0 -0 -0 0 -0 -0 -0 -0 -0 0 0 0 0 -0 0 -0
0 0 0 0 0 0 -0 -0 -0 -0 -0 -0 -0 -0 -0 -0 -0 0 -0 0 0 0 -0 0 0 0 0 0 -0 -0 -0 -0 -0 -0 -0 -0 -0 -0 -0 0 0 0 0 -0 0
0 0 0 0 0 0 -0 -0 -0 -0 -0 -0 -0 -0 -0 -0 -0 -0 0 0 0 0 -0 0 0 0 -0 -0 -0 -0 -0 -0 -0 -0 -0 -0 -0 -0 -0 -0 -0 -0 -0 -0 -0
0 0 0 0 0 0 0 -0 -0 -0 -0 -0 -0 -0 -0 0 0 -0 0 0 0 -0 0 -0 0 -0 -0 -0 -0 -0 -0 -0 -0 -0 -0 -0 -0 -0 -0 -0 -0 -0 -0 -0 -0
0 0 0 0 0 0 0 0 -0 -0 -0 -0 -0 -0 -0 0 -0 -0 0 0 0 0 0 0 -0 -0 -0 -0 -0 -0 -0 -0 -0 -0 -0 -0 -0 0 -0 -0 -0 -0 -0 -0 -0
0 0 0 0 0 0 0 0 0 -0 -0 -0 -0 -0 -0 -0 -0 0 0 0 0 0 -0 -0 -0 0 -0 -0 -0 -0 -0 -0 -0 -0 -0 -0 -0 -0 -0 -0 -0 -0 -0 -0 -0
0 0 0 0 0 0 0 0 0 0 0 -0 -0 0 0 0 -0 0 0 0 0 0 0 0 -0 -0 -0 -0 0 -0 -0 -0 -0 -0 -0 0 -0 -0 -0 -0 -0 -0 -0 -0 -0
0 0 0 0 0 0 0 0 0 0 0 0 0 0 0 0 0 0 0 0 0 0 0 0 0 -0 -0 -0 -0 -0 -0 -0 -0 -0 -0 -0 -0 -0 -0 -0 -0 -0 -0 -0 0
0 0 0 0 0 0 0 0 0 0 0 0 0 0 0 0 0 0 0 0 0 0 0 -0 -0 -0 -0 0 0 -0 -0 -0 -0 -0 -0 -0 -0 -0 -0 -0 -0 -0 -0 -0 0
0 0 0 0 0 0 0 0 0 0 0 0 0 0 0 0 0 0 0 0 0 0 0 0 0 -0 -0 0 0 -0 -0 0 0 -0 -0 -0 -0 -0 -0 -0 -0 -0 -0 0 0
0 0 0 0 0 0 0 0 0 0 0 0 0 0 0 0 0 0 0 0 0 0 0 0 0 0 0 0 0 0 -0 -0 -0 0 -0 -0 -0 -0 -0 -0 -0 -0 -0 0 0
0 0 0 0 0 0 0 0 0 0 0 0 0 0 0 0 0 0 0 0 0 0 0 0 0 0 0 0 0 0 -0 -0 -0 -0 0 -0 -0 -0 -0 -0 -0 -0 0 0 0
0 0 0 0 0 0 0 0 0 0 0 0 0 0 0 0 0 0 0 0 0 0 0 0 0 0 0 0 0 0 0 0 0 -0 0 -0 -0 -0 -0 -0 -0 0 0 0 0
0 0 0 0 0 0 0 0 0 0 0 0 0 0 0 0 0 0 0 0 0 0 0 0 0 0 0 0 0 0 0 0 0 0 0 0 0 0 -0 -0 -0 0 0 0 0
0 0 0 0 0 0 0 0 0 0 0 0 0 0 0 0 0 0 0 0 0 0 0 0 0 0 0 0 0 0 0 0 0 0 0 0 0 0 -0 -0 -0 0 0 0 0
0 0 0 0 0 0 0 0 0 0 0 0 0 0 0 0 0 0 0 0 0 0 0 0 0 0 0 0 0 0 0 0 0 0 0 0 0 0 0 0 0 0 0 0 0
0 0 0 0 0 0 0 0 0 0 0 0 0 0 0 0 0 0 0 0 0 0 0 0 0 0 0 0 0 0 0 0 0 0 0 0 0 0 0 0 0 0 0 0 0
0 0 0 0 0 0 0 0 0 0 0 0 0 0 0 0 0 0 0 0 0 0 0 0 0 0 0 0 0 0 0 0 0 0 0 0 0 0 0 0 0 0 0 0 0
0 0 0 0 0 0 0 0 0 0 0 0 0 0 0 0 0 0 0 0 0 0 0 0 0 0 0 0 0 0 0 0 0 0 0 0 0 0 0 0 0 0 0 0 0
0 0 0 0 0 0 0 0 0 0 0 0 0 0 0 0 0 0 0 0 0 0 0 0 0 0 0 0 0 0 0 0 0 0 0 0 0 0 0 0 0 0 0 0 0
0 0 0 0 0 0 0 0 0 0 0 0 0 0 0 0 0 0 0 0 0 0 0 0 0 0 0 0 0 0 0 0 0 0 0 0 0 0 0 0 0 0 0 0 0
0 0 0 0 0 0 0 0 0 0 0 0 0 0 0 0 0 0 0 0 0 0 0 0 0 0 0 0 0 0 0 0 0 0 0 0 0 0 0 0 0 0 0 0 0
0 0 0 0 0 0 0 0 0 0 0 0 0 0 0 0 0 0 0 0 0 0 0 0 0 0 0 0 0 0 0 0 0 0 0 0 0 0 0 0 0 0 0 0 0
0 0 0 0 0 0 0 0 0 0 0 0 0 0 0 0 0 0 0 0 0 0 0 0 0 0 0 0 0 0 0 0 0 0 0 0 0 0 0 0 0 0 0 0 0
0 0 0 0 0 0 0 0 0 0 0 0 0 0 0 0 0 0 0 0 0 0 0 0 0 0 0 0 0 0 0 0 0 0 0 0 0 0 0 0 0 0 0 0 0
0 0 0 0 0 0 0 0 0 0 0 0 0 0 0 0 0 0 0 0 0 0 0 0 0 0 0 0 0 0 0 0 0 0 0 0 0 0 0 0 0 0 0 0 0
Wind_Speed_500mb
10 7 6 6 9 9 7 5 9 15 15 13 7 9 16 21 28 16 17 14 12 13 15 17 11 7 5 5 29 49 27 25 34 26 21 32 28 31 34 34 23 18 23 20 20
10 9 7 5 7 8 6 6 9 14 15 12 3 4 10 12 17 36 22 10 12 16 10 9 10 14 5 5 45 27 32 36 32 48 30 37 44 32 22 34 28 30 24 19 23
11 7 11 6 6 7 8 5 8 12 14 12 1 7 4 13 10 29 17 10 16 16 17 11 17 14 24 35 56 29 34 48 49 52 47 44 39 38 44 20 16 27 23 23 25
13 9 8 10 7 7 7 5 8 11 14 14 3 8 3 11 4 30 17 9 13 8 10 23 8 35 43 42 64 61 53 58 56 51 50 46 42 44 40 27 31 29 26 23 21
13 12 8 9 10 8 6 7 6 10 13 16 11 7 2 7 14 28 16 10 12 14 17 34 39 31 33 52 64 53 56 56 54 51 51 44 34 34 40 35 32 29 23 21 19
14 11 12 10 9 10 6 6 5 8 11 14 19 15 10 16 22 25 17 7 7 9 12 14 39 55 66 35 23 54 59 54 49 48 51 50 41 23 30 31 29 25 23 21 18
19 12 11 14 10 9 7 5 5 6 8 11 19 19 20 10 22 15 18 7 3 2 41 49 37 10 35 51 54 61 53 46 44 38 38 45 26 25 32 29 29 26 23 21 18
19 17 10 13 14 9 6 6 4 6 6 8 11 20 9 18 21 21 16 23 26 24 10 17 50 49 16 59 44 39 30 26 24 38 29 5 26 28 29 29 28 26 24 21 19
19 18 12 11 15 11 6 5 3 5 6 10 6 10 10 19 18 23 18 21 29 33 35 28 16 32 61 36 29 30 25 35 25 28 21 18 27 32 32 30 29 26 24 20 19
19 20 15 9 14 11 6 5 5 6 11 16 8 4 5 11 8 17 17 21 32 34 30 35 41 27 24 27 15 21 29 27 21 22 17 24 21 36 33 30 29 29 27 24 22
20 20 16 11 11 8 4 5 5 4 14 9 4 6 15 13 14 9 14 9 7 10 11 16 16 24 32 7 24 13 29 22 22 25 23 14 27 28 37 34 34 31 28 25 24
25 20 17 13 10 8 9 12 10 1 6 9 6 12 13 4 13 12 5 5 10 14 11 16 9 11 9 4 11 18 15 21 11 11 10 17 25 30 40 38 38 35 32 30 28
27 21 20 14 10 10 14 10 6 12 9 3 5 9 8 7 2 10 7 2 11 8 19 10 14 6 2 9 12 12 17 15 10 16 19 17 25 34 38 40 39 36 34 32 30
31 25 19 10 4 12 10 10 14 3 5 10 11 4 9 4 1 4 4 5 2 9 15 12 3 4 12 12 15 13 15 4 12 18 5 25 14 38 38 36 43 41 34 33 30
38 27 17 19 7 4 16 13 8 3 4 12 13 6 10 13 22 5 7 7 6 7 6 5 6 8 15 11 14 12 8 7 11 18 17 19 11 29 40 35 33 43 41 34 34
44 29 23 21 16 13 16 16 2 9 9 11 8 13 17 9 6 11 7 13 17 20 23 8 6 13 13 10 7 8 7 5 5 14 12 32 16 20 32 35 36 46 45 42 36
48 35 29 24 11 22 22 16 4 3 8 13 11 17 21 13 13 17 18 14 10 9 10 12 4 4 11 12 5 12 10 4 9 8 9 10 8 17 18 22 33 49 52 50 45
51 42 36 39 14 25 30 12 6 14 8 10 13 16 20 14 12 19 20 16 19 19 14 14 7 8 3 7 5 16 15 5 8 5 8 14 12 7 21 16 7 12 54 53 48
57 48 46 50 38 34 24 5 15 16 18 15 19 19 16 17 5 11 15 20 17 15 11 12 10 6 7 7 9 11 7 12 7 13 7 10 10 6 19 20 16 13 30 48 47
59 48 47 51 41 36 12 13 16 4 18 26 10 11 16 19 11 13 19 12 16 8 10 5 8 7 6 6 7 8 11 4 5 2 6 12 22 2 26 23 19 23 21 43 47
58 26 24 51 46 33 10 18 14 15 26 15 9 19 21 14 20 16 8 4 7 11 7 4 7 7 4 14 16 6 4 5 7 7 4 6 2 12 19 20 21 24 26 29 44
57 9 36 54 28 26 19 29 24 26 23 7 15 10 17 13 10 14 17 5 11 21 10 3 5 8 10 6 8 10 17 16 6 8 6 7 7 7 13 15 18 20 21 23 36
48 18 26 51 14 22 33 37 22 28 27 16 15 7 6 12 5 17 6 12 9 13 8 12 8 5 6 7 5 8 6 9 3 4 10 5 4 9 9 8 9 18 19 25 30
29 6 12 33 46 35 40 44 32 36 33 21 15 17 11 13 15 5 5 6 3 8 3 4 6 10 6 6 8 4 6 6 9 6 4 24 21 16 18 16 21 20 22 27 27
25 19 21 11 26 39 46 36 42 25 38 34 18 21 18 12 22 15 6 8 4 9 4 5 6 2 5 12 13 13 11 23 18 30 12 18 26 15 17 18 23 23 22 24 21
26 18 18 36 55 42 37 44 49 41 31 38 21 29 24 10 12 13 16 11 9 21 16 10 5 5 6 21 19 21 22 26 31 36 39 40 43 40 10 17 21 20 25 26 25
39 35 29 36 47 32 35 46 44 50 39 44 37 21 21 12 18 13 13 25 21 17 20 14 4 4 5 4 10 13 34 36 33 23 34 30 28 33 12 21 19 19 23 26 23
Wind_Direction_500mb
353 360 5 5 356 353 358 6 356 2 14 34 45 67 90 72 61 32 30 71 75 76 79 81 109 139 36 353 101 119 129 123 115 125 128 138 100 74 82 87 72 64 102 100 81
342 341 340 356 349 347 343 340 351 2 3 22 44 116 90 71 66 29 15 79 42 8 345 230 94 155 162 350 72 344 71 69 93 114 125 114 105 103 105 92 87 90 84 85 80
333 342 323 334 335 343 322 333 352 359 7 13 356 191 85 1 317 12 18 90 80 13 23 65 82 135 133 58 97 139 102 105 110 119 116 115 108 120 119 83 97 124 113 94 96
329 324 320 319 319 328 318 326 350 360 9 11 35 180 16 348 13 352 8 110 83 59 22 133 113 91 87 86 101 101 105 108 116 120 122 121 106 73 90 113 113 116 106 100 93
328 320 308 311 307 309 312 309 351 7 14 29 80 108 235 76 12 353 3 110 46 355 104 114 104 102 96 100 99 104 111 108 108 108 107 106 101 102 105 115 120 120 118 110 100
324 324 309 299 293 299 301 296 340 358 30 63 73 39 320 67 358 353 37 344 333 98 33 164 97 111 114 105 99 117 110 113 116 114 113 114 123 112 123 130 127 126 122 113 107
328 316 310 296 288 284 292 280 307 342 43 100 87 51 66 48 15 21 46 55 136 132 108 111 116 126 108 100 121 121 116 115 123 132 130 118 105 119 141 143 137 134 128 123 117
337 308 305 297 288 277 273 269 273 333 27 131 87 58 58 68 64 68 84 82 91 93 114 113 116 117 113 126 134 126 126 129 146 142 160 288 138 146 154 153 147 145 140 134 122
329 306 296 301 286 279 257 231 283 355 29 113 78 351 110 67 68 76 97 99 104 102 109 118 91 122 136 142 153 190 163 131 154 191 155 224 135 162 170 166 158 158 149 142 131
299 309 295 296 289 278 257 164 54 44 55 95 48 27 134 110 85 79 75 117 105 107 110 112 119 143 161 179 164 211 130 155 161 187 204 197 151 160 181 176 173 170 162 164 158
284 304 293 283 283 266 197 125 316 135 43 38 42 74 108 127 99 97 86 120 162 203 166 208 180 174 181 338 302 182 126 172 139 162 200 186 139 171 186 185 187 178 172 173 159
266 289 283 268 260 234 183 0 19 86 62 64 103 99 127 165 130 107 112 240 235 206 172 185 105 49 64 329 281 106 166 113 122 192 271 189 157 175 187 197 188 187 185 175 157
253 271 280 261 247 224 193 297 230 153 250 124 115 149 146 317 110 94 328 294 247 182 207 188 77 17 141 193 189 159 170 166 193 187 251 192 187 185 189 200 198 199 191 183 179
239 253 263 239 288 240 218 224 186 151 220 141 192 166 186 117 62 68 29 358 256 222 89 60 78 96 209 144 357 157 56 180 152 197 261 204 271 186 188 196 202 197 199 190 189
229 237 244 209 177 194 229 197 188 269 37 159 125 143 163 198 141 143 133 272 199 78 359 66 140 200 204 68 350 87 151 209 204 244 316 204 251 220 179 199 199 200 198 198 190
221 221 225 216 215 201 212 180 150 41 234 163 151 182 168 196 152 143 115 90 93 76 60 72 35 19 34 113 5 130 163 215 264 257 262 251 209 149 179 198 198 198 197 198 197
217 216 210 170 218 223 175 170 109 179 191 147 187 168 183 193 177 181 169 160 177 135 141 146 75 14 307 120 149 218 198 220 226 183 247 67 190 270 118 176 197 188 190 192 194
215 216 204 195 225 194 172 206 125 210 174 104 157 179 189 169 216 210 187 190 224 226 146 176 195 177 160 356 291 220 215 171 266 261 322 145 236 127 125 127 98 178 183 184 186
216 208 207 198 194 187 187 140 199 222 138 153 126 175 195 170 328 222 245 209 198 232 190 199 123 85 339 352 327 192 240 353 290 294 278 256 122 140 144 151 161 175 174 174 182
206 200 212 207 194 183 209 201 224 249 153 160 130 175 210 197 202 205 204 223 186 193 16 355 111 189 126 307 251 316 335 177 31 114 247 265 272 157 175 175 178 184 200 174 179
194 157 235 211 185 187 180 194 203 164 165 179 152 150 199 198 204 201 208 60 176 154 245 158 102 147 93 210 198 191 230 238 191 233 274 311 351 355 171 187 171 190 184 189 176
161 113 192 195 177 188 202 196 236 172 180 160 164 143 153 163 225 248 240 197 133 148 200 125 87 174 204 75 341 318 226 199 154 248 243 316 280 43 58 77 150 172 170 184 171
152 139 197 187 191 187 198 213 213 177 190 175 167 145 183 138 82 266 247 8 120 176 311 147 172 124 218 199 220 235 216 94 49 350 238 192 240 129 133 159 182 149 169 167 173
150 130 192 197 221 190 191 201 200 209 196 190 164 142 162 128 182 245 182 87 352 232 46 145 243 202 211 87 109 241 217 143 135 196 244 242 270 195 199 198 178 163 167 166 174
148 206 170 185 225 200 197 193 193 190 207 190 183 196 175 158 175 193 228 99 201 220 254 228 240 221 249 255 205 218 214 193 198 223 210 261 256 298 180 179 169 160 164 151 159
164 145 189 185 199 207 198 215 198 197 196 192 205 196 191 195 178 174 185 158 197 179 216 204 267 250 262 245 236 259 248 222 215 241 250 262 273 296 139 144 152 170 176 166 159
199 170 183 164 194 208 202 206 206 203 194 206 206 172 195 177 170 126 174 187 246 161 210 181 212 152 251 342 311 291 237 235 224 217 220 242 258 277 157 151 152 167 167 161 165
Wind_Speed_850mb
10 7 6 6 9 9 7 5 9 15 15 13 7 9 16 21 28 16 17 14 12 13 15 17 11 7 5 5 29 49 27 25 34 26 21 32 28 31 34 34 23 18 23 20 20
10 9 7 5 7 8 6 6 9 14 15 12 3 4 10 12 17 36 22 10 12 16 10 9 10 14 5 5 45 27 32 36 32 48 30 37 44 32 22 34 28 30 24 19 23
11 7 11 6 6 7 8 5 8 12 14 12 1 7 4 13 10 29 17 10 16 16 17 11 17 14 24 35 56 29 34 48 49 52 47 44 39 38 44 20 16 27 23 23 25
13 9 8 10 7 7 7 5 8 11 14 14 3 8 3 11 4 30 17 9 13 8 10 23 8 35 43 42 64 61 53 58 56 51 50 46 42 44 40 27 31 29 26 23 21
13 12 8 9 10 8 6 7 6 10 13 16 11 7 2 7 14 28 16 10 12 14 17 34 39 31 33 52 64 53 56 56 54 51 51 44 34 34 40 35 32 29 23 21 19
14 11 12 10 9 10 6 6 5 8 11 14 19 15 10 16 22 25 17 7 7 9 12 14 39 55 66 35 23 54 59 54 49 48 51 50 41 23 30 31 29 25 23 21 18
19 12 11 14 10 9 7 5 5 6 8 11 19 19 20 10 22 15 18 7 3 2 41 49 37 10 35 51 54 61 53 46 44 38 38 45 26 25 32 29 29 26 23 21 18
19 17 10 13 14 9 6 6 4 6 6 8 11 20 9 18 21 21 16 23 26 24 10 17 50 49 16 59 44 39 30 26 24 38 29 5 26 28 29 29 28 26 24 21 19
19 18 12 11 15 11 6 5 3 5 6 10 6 10 10 19 18 23 18 21 29 33 35 28 16 32 61 36 29 30 25 35 25 28 21 18 27 32 32 30 29 26 24 20 19
19 20 15 9 14 11 6 5 5 6 11 16 8 4 5 11 8 17 17 21 32 34 30 35 41 27 24 27 15 21 29 27 21 22 17 24 21 36 33 30 29 29 27 24 22
20 20 16 11 11 8 4 5 5 4 14 9 4 6 15 13 14 9 14 9 7 10 11 16 16 24 32 7 24 13 29 22 22 25 23 14 27 28 37 34 34 31 28 25 24
25 20 17 13 10 8 9 12 10 1 6 9 6 12 13 4 13 12 5 5 10 14 11 16 9 11 9 4 11 18 15 21 11 11 10 17 25 30 40 38 38 35 32 30 28
27 21 20 14 10 10 14 10 6 12 9 3 5 9 8 7 2 10 7 2 11 8 19 10 14 6 2 9 12 12 17 15 10 16 19 17 25 34 38 40 39 36 34 32 30
31 25 19 10 4 12 10 10 14 3 5 10 11 4 9 4 1 4 4 5 2 9 15 12 3 4 12 12 15 13 15 4 12 18 5 25 14 38 38 36 43 41 34 33 30
38 27 17 19 7 4 16 13 8 3 4 12 13 6 10 13 22 5 7 7 6 7 6 5 6 8 15 11 14 12 8 7 11 18 17 19 11 29 40 35 33 43 41 34 34
44 29 23 21 16 13 16 16 2 9 9 11 8 13 17 9 6 11 7 13 17 20 23 8 6 13 13 10 7 8 7 5 5 14 12 32 16 20 32 35 36 46 45 42 36
48 35 29 24 11 22 22 16 4 3 8 13 11 17 21 13 13 17 18 14 10 9 10 12 4 4 11 12 5 12 10 4 9 8 9 10 8 17 18 22 33 49 52 50 45
51 42 36 39 14 25 30 12 6 14 8 10 13 16 20 14 12 19 20 16 19 19 14 14 7 8 3 7 5 16 15 5 8 5 8 14 12 7 21 16 7 12 54 53 48
57 48 46 50 38 34 24 5 15 16 18 15 19 19 16 17 5 11 15 20 17 15 11 12 10 6 7 7 9 11 7 12 7 13 7 10 10 6 19 20 16 13 30 48 47
59 48 47 51 41 36 12 13 16 4 18 26 10 11 16 19 11 13 19 12 16 8 10 5 8 7 6 6 7 8 11 4 5 2 6 12 22 2 26 23 19 23 21 43 47
58 26 24 51 46 33 10 18 14 15 26 15 9 19 21 14 20 16 8 4 7 11 7 4 7 7 4 14 16 6 4 5 7 7 4 6 2 12 19 20 21 24 26 29 44
57 9 36 54 28 26 19 29 24 26 23 7 15 10 17 13 10 14 17 5 11 21 10 3 5 8 10 6 8 10 17 16 6 8 6 7 7 7 13 15 18 20 21 23 36
48 18 26 51 14 22 33 37 22 28 27 16 15 7 6 12 5 17 6 12 9 13 8 12 8 5 6 7 5 8 6 9 3 4 10 5 4 9 9 8 9 18 19 25 30
29 6 12 33 46 35 40 44 32 36 33 21 15 17 11 13 15 5 5 6 3 8 3 4 6 10 6 6 8 4 6 6 9 6 4 24 21 16 18 16 21 20 22 27 27
25 19 21 11 26 39 46 36 42 25 38 34 18 21 18 12 22 15 6 8 4 9 4 5 6 2 5 12 13 13 11 23 18 30 12 18 26 15 17 18 23 23 22 24 21
26 18 18 36 55 42 37 44 49 41 31 38 21 29 24 10 12 13 16 11 9 21 16 10 5 5 6 21 19 21 22 26 31 36 39 40 43 40 10 17 21 20 25 26 25
39 35 29 36 47 32 35 46 44 50 39 44 37 21 21 12 18 13 13 25 21 17 20 14 4 4 5 4 10 13 34 36 33 23 34 30 28 33 12 21 19 19 23 26 23
Wind_Direction_850mb
353 360 5 5 356 353 358 6 356 2 14 34 45 67 90 72 61 32 30 71 75 76 79 81 109 139 36 353 101 119 129 123 115 125 128 138 100 74 82 87 72 64 102 100 81
342 341 340 356 349 347 343 340 351 2 3 22 44 116 90 71 66 29 15 79 42 8 345 230 94 155 162 350 72 344 71 69 93 114 125 114 105 103 105 92 87 90 84 85 80
333 342 323 334 335 343 322 333 352 359 7 13 356 191 85 1 317 12 18 90 80 13 23 65 82 135 133 58 97 139 102 105 110 119 116 115 108 120 119 83 97 124 113 94 96
329 324 320 319 319 328 318 326 350 360 9 11 35 180 16 348 13 352 8 110 83 59 22 133 113 91 87 86 101 101 105 108 116 120 122 121 106 73 90 113 113 116 106 100 93
328 320 308 311 307 309 312 309 351 7 14 29 80 108 235 76 12 353 3 110 46 355 104 114 104 102 96 100 99 104 111 108 108 108 107 106 101 102 105 115 120 120 118 110 100
324 324 309 299 293 299 301 296 340 358 30 63 73 39 320 67 358 353 37 344 333 98 33 164 97 111 114 105 99 117 110 113 116 114 113 114 123 112 123 130 127 126 122 113 107
328 316 310 296 288 284 292 280 307 342 43 100 87 51 66 48 15 21 46 55 136 132 108 111 116 126 108 100 121 121 116 115 123 132 130 118 105 119 141 143 137 134 128 123 117
337 308 305 297 288 277 273 269 273 333 27 131 87 58 58 68 64 68 84 82 91 93 114 113 116 117 113 126 134 126 126 129 146 142 160 288 138 146 154 153 147 145 140 134 122
329 306 296 301 286 279 257 231 283 355 29 113 78 351 110 67 68 76 97 99 104 102 109 118 91 122 136 142 153 190 163 131 154 191 155 224 135 162 170 166 158 158 149 142 131
299 309 295 296 289 278 257 164 54 44 55 95 48 27 134 110 85 79 75 117 105 107 110 112 119 143 161 179 164 211 130 155 161 187 204 197 151 160 181 176 173 170 162 164 158
284 304 293 283 283 266 197 125 316 135 43 38 42 74 108 127 99 97 86 120 162 203 166 208 180 174 181 338 302 182 126 172 139 162 200 186 139 171 186 185 187 178 172 173 159
266 289 283 268 260 234 183 0 19 86 62 64 103 99 127 165 130 107 112 240 235 206 172 185 105 49 64 329 281 106 166 113 122 192 271 189 157 175 187 197 188 187 185 175 157
253 271 280 261 247 224 193 297 230 153 250 124 115 149 146 317 110 94 328 294 247 182 207 188 77 17 141 193 189 159 170 166 193 187 251 192 187 185 189 200 198 199 191 183 179
239 253 263 239 288 240 218 224 186 151 220 141 192 166 186 117 62 68 29 358 256 222 89 60 78 96 209 144 357 157 56 180 152 197 261 204 271 186 188 196 202 197 199 190 189
229 237 244 209 177 194 229 197 188 269 37 159 125 143 163 198 141 143 133 272 199 78 359 66 140 200 204 68 350 87 151 209 204 244 316 204 251 220 179 199 199 200 198 198 190
221 221 225 216 215 201 212 180 150 41 234 163 151 182 168 196 152 143 115 90 93 76 60 72 35 19 34 113 5 130 163 215 264 257 262 251 209 149 179 198 198 198 197 198 197
217 216 210 170 218 223 175 170 109 179 191 147 187 168 183 193 177 181 169 160 177 135 141 146 75 14 307 120 149 218 198 220 226 183 247 67 190 270 118 176 197 188 190 192 194
215 216 204 195 225 194 172 206 125 210 174 104 157 179 189 169 216 210 187 190 224 226 146 176 195 177 160 356 291 220 215 171 266 261 322 145 236 127 125 127 98 178 183 184 186
216 208 207 198 194 187 187 140 199 222 138 153 126 175 195 170 328 222 245 209 198 232 190 199 123 85 339 352 327 192 240 353 290 294 278 256 122 140 144 151 161 175 174 174 182
206 200 212 207 194 183 209 201 224 249 153 160 130 175 210 197 202 205 204 223 186 193 16 355 111 189 126 307 251 316 335 177 31 114 247 265 272 157 175 175 178 184 200 174 179
194 157 235 211 185 187 180 194 203 164 165 179 152 150 199 198 204 201 208 60 176 154 245 158 102 147 93 210 198 191 230 238 191 233 274 311 351 355 171 187 171 190 184 189 176
161 113 192 195 177 188 202 196 236 172 180 160 164 143 153 163 225 248 240 197 133 148 200 125 87 174 204 75 341 318 226 199 154 248 243 316 280 43 58 77 150 172 170 184 171
152 139 197 187 191 187 198 213 213 177 190 175 167 145 183 138 82 266 247 8 120 176 311 147 172 124 218 199 220 235 216 94 49 350 238 192 240 129 133 159 182 149 169 167 173
150 130 192 197 221 190 191 201 200 209 196 190 164 142 162 128 182 245 182 87 352 232 46 145 243 202 211 87 109 241 217 143 135 196 244 242 270 195 199 198 178 163 167 166 174
148 206 170 185 225 200 197 193 193 190 207 190 183 196 175 158 175 193 228 99 201 220 254 228 240 221 249 255 205 218 214 193 198 223 210 261 256 298 180 179 169 160 164 151 159
164 145 189 185 199 207 198 215 198 197 196 192 205 196 191 195 178 174 185 158 197 179 216 204 267 250 262 245 236 259 248 222 215 241 250 262 273 296 139 144 152 170 176 166 159
199 170 183 164 194 208 202 206 206 203 194 206 206 172 195 177 170 126 174 187 246 161 210 181 212 152 251 342 311 291 237 235 224 217 220 242 258 277 157 151 152 167 167 161 165